ARIANE 5 R/B, 45248

Orbit data source: Space-Track

ARIANE 5 R/B, 45248 is space debris in HEO originally from a launch on Tue, 18 Feb 2020 UTC launched from the French Guiana (FRGUI). Debris objects in space refer to the collection of defunct objects orbiting the Earth. Examples of debris include non-operational satellites, rocket bodies, and fragments generated from explosions, collisions, or faulty payload assembly.

Loading next visibility...
Identifier
45248, 2020-013D
Orbit
HEO
Country
Flag of FRFR
Related business
Manufacturer
ArianeGroup
Mission
Spacecraft
Bus & Motor
ESC-A, Unknown motor
Mass
~5,000 kg wet, ~5,000 kg dry
Launch date (UTC)
2020-02-18 (6 years ago)
Launch vehicle
Unknown
Launch site
French Guiana (FRGUI)
Object type
Payload
Rocket body
Debris
Shape & HBR
Cyl + 1 Nozzle, 3.5 m
Radar Cross Section
41.627 m², Large (>1 m²)

Expand to show TLE details & history
Last TLE update: 1 day ago

TLE from 1 day ago
0 ARIANE 5 R/B
1 45248U 20013D   25305.99074748  .00003039  00000-0  92003-3 0  9994
2 45248   5.3125 130.5366 7162934 154.6052 273.2528  2.42470709 48972
Epoch: 2025-11-01T23:46Z
TLE epoch observation values (Epoch: 2025-11-01T23:46:40.582Z)
Latitude
-0.00016°
Longitude
92.56414°
Altitude
25,798.912 km
Speed
2.783 km/s
True Right ascension
08h 42m 59s
True Declination
0° 00' 01"
Sunlit
Object was in daylight at epoch
Visualization orbit readout
Latitude
Unknown
Longitude
Unknown
Altitude
Unknown
Speed
Unknown
Apparent Right ascension
Unknown
Apparent Declination
Unknown
Sunlit
N/A
Visualization observer readout
Local Sidereal Time
19:30:02
Azimuth
Unknown
Elevation
Unknown
Doppler factor
Unknown
Orbital elements
Apogee altitude
33,799.918 km
Perigee altitude
263.373 km
Semi-major axis
23,409.782 km
Eccentricity
0.71629
Inclination
5.3125°
RAAN
130.5366°
Arg. of periapsis
154.6052°
True anomaly
205.56564°
Mean anomaly
273.2528°
Eccentric anomaly
238.32544°
Mean motion
0.60596 °/min
Orbital period
594.09 mins
BSTAR
0.00092003
Loading maneuver chart data...
Computing Atmospheric mass density...
Loading historical data...
Loading historical data...
Loading historical data...
Loading historical data...
Loading historical data...
Loading historical data...
Loading historical data...
Other satellites on launch #13 in the year 2020 (2020-02-18 UTC)

Documentation

Showing up to 5 results
|